User: anonymous   Login
Location: Unspecified
(0.0000°N, 0.0000°E)
Time: 03:49:31
(UTC+00:00)
Language:

CANX 3B (BRITE-ASRA) - Orbit

View from above orbital plane
View from above orbital plane
View from above satellite
View from above satellite

Ground track
Ground track

The orbit data is extracted from the following two-line orbital elements,

1 39091U 13009F   16044.20678562  .00000072  00000-0  40761-4 0  9997
2 39091  98.5877 246.6777 0009877 325.7410  34.3137 14.34953304155222
Epoch (UTC): 13 February 2016 04:57:46
Eccentricity: 0.0009877
inclination: 98.5877°
perigee height: 768 km
apogee height: 782 km
right ascension of ascending node: 246.6777°
argument of perigee: 325.7410°
revolutions per day: 14.34953304
mean anomaly at epoch: 34.3137°
orbit number at epoch: 15522

The dashed part of the orbit path shows where the satellite is in the earth's shadow,  

DLR